Location: Newark
(45.8667°N, 9.7333°E)
Time: 19:39:21
(UTC+00:00)

SR - Visible Passes

Search period start: 25 January 2020 00:00
Search period end: 04 February 2020 00:00
Orbit: 574 x 882 km, 66.7° (Epoch: 25 January)

Date Brightness Start Highest point End Pass type
(mag) Time Alt. Az. Time Alt. Az. Time Alt. Az.
25 Jan ? 04:26:34 11° N 04:30:24 19° NNE 04:34:15 10° ENE visible
25 Jan ? 06:07:53 10° NNW 06:13:32 76° NE 06:18:41 10° SE visible
26 Jan ? 03:38:19 12° N 03:39:59 14° NNE 03:42:46 10° NE visible
26 Jan ? 05:18:17 10° NNW 05:23:41 44° NE 05:28:39 10° ESE visible
27 Jan ? 02:50:07 10° NNE 02:50:07 10° NNE 02:50:34 10° NNE visible
27 Jan ? 04:29:32 13° NNW 04:33:37 27° NE 04:38:08 10° E visible
27 Jan ? 06:10:42 10° NW 06:16:13 63° WSW 06:21:14 10° SSE visible
28 Jan ? 03:41:24 16° N 03:43:22 19° NNE 03:47:06 10° ENE visible
28 Jan ? 05:20:56 10° NNW 05:26:34 72° NE 05:31:40 10° SE visible
29 Jan ? 02:53:19 13° NNE 02:53:19 13° NNE 02:55:35 10° NE visible
29 Jan ? 04:32:45 17° NNW 04:36:41 41° NE 04:41:35 10° ESE visible
29 Jan ? 06:13:46 10° NW 06:18:42 35° WSW 06:23:15 10° S visible
30 Jan ? 03:44:45 22° N 03:46:37 26° NE 03:51:01 10° E visible
30 Jan ? 05:24:11 12° NW 05:29:15 67° WSW 05:34:15 10° SSE visible
31 Jan ? 02:56:51 18° NE 02:56:51 18° NE 02:59:57 10° ENE visible
31 Jan ? 04:36:17 25° NNW 04:39:35 68° NE 04:44:39 10° SE visible
01 Feb ? 03:48:30 35° NNE 03:49:41 39° NE 03:54:31 10° ESE visible
01 Feb ? 05:27:57 16° NW 05:31:45 37° WSW 05:36:20 10° S visible
02 Feb ? 03:00:51 23° ENE 03:00:51 23° ENE 03:03:55 10° E visible
02 Feb ? 04:40:18 39° NW 04:42:17 71° WSW 04:47:16 10° SSE visible
02 Feb ? 19:07:42 10° S 19:09:54 23° S 19:09:54 23° S visible
03 Feb ? 03:52:48 64° ENE 03:52:48 64° ENE 03:57:37 10° SE visible
03 Feb ? 05:32:16 17° W 05:34:05 20° WSW 05:37:43 10° SSW visible
03 Feb ? 18:18:59 10° SSE 18:22:57 28° SE 18:22:57 28° SE visible
03 Feb ? 20:00:00 10° SW 20:02:27 25° WSW 20:02:27 25° WSW visible
